FENGYUN 1C DEB

Satellite information

Favourite Embed

Satellite Type and Status

DEBRISIN ORBIT

Key statistics

Satellite FENGYUN 1C DEB at a glance.

Uptime

9550

Days in orbit

Revolutions

≈ 14.9

Per day

Orbit

SSO

Sun Synchronous Orbit

Inclination

99.5

Latest

Satellite identification and parameters

Extended collection of information and parameters for FENGYUN 1C DEB.

Object identification

Identified? True

Debris? True

Object name: FENGYUN 1C DEB

International designator: 1999-025AYA

Object number (NORAD): 30888

Object ID (CCSDS): 30888

Country: PEOPLES REPUBLIC OF CHINA (PRC)

Current information (Y/N): Y

RCS size: SMALL

Orbital parameters

Period: 96.749 minutes

Inclination: 99.4662 deg

SMA: 6981.128 km

Apoapsis: 666.597 km

Periapsis: 539.388 km

RAAN: 128.2671 deg

Eccentricy: 0.0091109

Argument of periapsis: 311.7962 deg

Mean anomaly: 47.5491 deg

Mean motion: 14.8838193 rev/day

Mean motion (dot): 0.00008411 rev/day2

B* drag term: 0.00084803 1/REarth

Two-line elements (TLE)

Creation date: July 1, 2025, 6:11 p.m.

Reference frame: TEME

Reference center: EARTH

Epoch: July 1, 2025, 2:55 a.m. UTC

TLE line 0: 0 FENGYUN 1C DEB

TLE line 1: 1 30888U 99025AYA 25182.12186498 .00008411 00000-0 84803-3 0 9999

TLE line 2: 2 30888 99.4662 128.2671 0091109 311.7962 47.5491 14.88381930974736

Live tracking on map

Real-time ground track for satellite FENGYUN 1C DEB.

In-orbit conjunctions

A list of the most updated potential collisions computed for object FENGYUN 1C DEB.

Target Orbit TCA Probability of collision Miss distance Type
SL-14 R/B LEO 2025-03-25 07:45:15 0.0001481489 708.0 (m) ROCKET BODY
ELECTRON KICK STAGE R/B SSO 2024-11-13 01:39:34 0.0007079946 221.0 (m) ROCKET BODY

Associated space launch

Chinese polar orbiting meteorological satellite

FENGYUN 1C DEB was lifted into orbit during the mission ‘Long March 4B | Feng Yun 1C’, on board a Long March 4B space rocket.

The launch took place on May 10, 1999, 1:33 a.m. from Launch Complex 7.

For more information about the launch, click the button.

Launch to space Long March 4B | Feng Yun 1C
Long March 4B | Feng Yun 1C

Agency: N/A

Status: Launch Successful

Launch date: May 10, 1999, 1:33 a.m. UTC

Rocket: Long March 4B

Launch pad: Launch Complex 7

Location: Taiyuan Satellite Launch Center, People's Republic of China

...

Latest news about this satellite

There are no fresh news available about this satellite. Check back as we update our databases every day.


Newsletter sign-up

Weekly statistics, charts and insights to help you stay on top of the space industry.